Location: Buckeye Ditch
(40.9104°N, 122.9517°W)
Time: 15:28:10
(UTC+00:00)

A-11 Canister half - Pass Details

Date: 19 May 2025
Orbit: 1515 x 1684 km, 47.2° (Epoch: 14 June)

Event Time Altitude Azimuth Distance (km) Brightness Sun altitude
Exits shadow 08:19:18 33° 240° (WSW) 2,400 9.7 -29.2°
Maximum altitude 08:24:21 89° 153° (SSE) 1,542 8.8 -29.1°
Drops below altitude 10° 08:33:39 10° 64° (ENE) 3,682 11.3 -28.9°
Sets 08:36:40 0° 64° (ENE) 4,661 12.0 -28.9°
